Hourly Data Report for September 30, 2017

All times are specified in Local Standard Time (LST). Add 1 hour to adjust for Daylight Saving Time where and when it is observed.

EDMUNDSTON
NEW BRUNSWICK

47°25'00.000" N
68°19'28.040" W
154.20 m
8101303
71590
ERM

Download Data

Hourly Data (September 2017)
Hourly Data Report for September 30, 2017
Temp Definition
°C
Dew Point Temp Definition
°C
Rel Hum Definition
%
Wind Dir Definition
10's deg

Wind Spd Definition
km/h
Visibility Definition
km
Stn Press Definition
kPa
Hmdx Definition


Wind Chill Definition


Weather Definition


TIME
00:00 -1.9 -2.7 94 29 3   100.23   -3 LegendNANA
01:00 -2.4 -3.2 94 36 3   100.28   -4 LegendNANA
02:00 -2.6 -3.3 95 30 1   100.30   -3 LegendNANA
03:00 -2.5 -3.2 95 0 1   100.34   -3 LegendNANA
04:00 -3.5 -4.3 94 33 3   100.41   -5 LegendNANA
05:00 -2.1 -2.8 95 28 3   100.47   -3 LegendNANA
06:00 -3.2 -4.0 94 34 4   100.53   -5 LegendNANA
07:00 -2.1 -2.8 96 29 3   100.61   -3 LegendNANA
08:00 1.2 -0.2 90 28 2   100.65     LegendNANA
09:00 4.8 1.0 76 19 3   100.69     LegendNANA
10:00 7.8 1.4 64 32 4   100.69     LegendNANA
11:00 8.1 0.4 58 33 9   100.70     LegendNANA
12:00 9.7 -0.3 49 3 5   100.65     LegendNANA
13:00 10.9 -0.4 46 25 8   100.61     LegendNANA
14:00 11.6 -0.8 42 25 7   100.56     LegendNANA
15:00 12.3 -1.5 38 22 4   100.52     LegendNANA
16:00 12.1 -2.5 36 31 6   100.50     LegendNANA
17:00 11.7 -1.2 41 30 5   100.48     LegendNANA
18:00 6.9 0.7 65   0   100.50     LegendNANA
19:00 2.1 -0.3 84 33 3   100.53     LegendNANA
20:00 0.9 -0.7 89 32 2   100.56     LegendNANA
21:00 -0.6 -1.9 91 32 2   100.56   -1 LegendNANA
22:00 -1.4 -2.4 93 29 2   100.56   -2 LegendNANA
23:00 -1.8 -2.7 94   0   100.54     LegendNANA

Notes on Data Quality.

Legend

  • E = Estimated
  • M = Missing
  • NA = Not Available
  • ‡ = Partner data that is not subject to review by the National Climate Archives
Date modified: